EN

Hourly Weather Graz

Today, 25 January, Monday

Time Temperature Precipitation Wind Pressure Humidity
00:00 -2°C° 0 mm 1 mps 711 mmHg 86%
01:00 -2°C° 0 mm 1 mps 711 mmHg 84%
02:00 -3°C° 0 mm 1 mps 712 mmHg 84%
03:00 -4°C° 0 mm 1 mps 712 mmHg 83%
04:00 -4°C° 0 mm 1 mps 712 mmHg 83%
05:00 -4°C° 0 mm 1 mps 712 mmHg 82%
06:00 -7°C° 0 mm 2 mps 712 mmHg 81%
07:00 -7°C° 0 mm 2 mps 711 mmHg 80%
08:00 -4°C° 0 mm 2 mps 713 mmHg 82%
09:00 -3°C° 0 mm 2 mps 714 mmHg 80%
10:00 -2°C° 0 mm 2 mps 714 mmHg 79%
11:00 +1°C° 0 mm 1 mps 714 mmHg 77%
12:00 +2°C° 0 mm 1 mps 715 mmHg 75%
13:00 +3°C° 0 mm 1 mps 715 mmHg 73%
14:00 +3°C° 0 mm 1 mps 715 mmHg 76%
15:00 +2°C° 0 mm 1 mps 716 mmHg 80%
16:00 +2°C° 0 mm 1 mps 716 mmHg 83%
17:00 0°C° 0 mm 1 mps 717 mmHg 83%
18:00 -1°C° 0 mm 1 mps 718 mmHg 83%
19:00 -2°C° 0 mm 1 mps 718 mmHg 83%
20:00 -2°C° 0 mm 1 mps 719 mmHg 84%
21:00 -3°C° 0 mm 1 mps 719 mmHg 84%
22:00 -3°C° 0 mm 1 mps 719 mmHg 84%
23:00 -3°C° 0 mm 1 mps 720 mmHg 84%

Tomorrow, 26 January, Tuesday

Time Temperature Precipitation Wind Pressure Humidity
00:00 -4°C° 0 mm 1 mps 720 mmHg 84%
01:00 -4°C° 0 mm 1 mps 720 mmHg 84%
02:00 -6°C° 0 mm 2 mps 720 mmHg 83%
03:00 -6°C° 0 mm 2 mps 720 mmHg 83%
04:00 -6°C° 0 mm 2 mps 720 mmHg 83%
05:00 -6°C° 0 mm 2 mps 720 mmHg 82%
06:00 -6°C° 0 mm 2 mps 720 mmHg 81%
07:00 -6°C° 0 mm 2 mps 720 mmHg 81%
08:00 -5°C° 0 mm 2 mps 720 mmHg 79%
09:00 -2°C° 0 mm 1 mps 721 mmHg 78%
10:00 0°C° 0 mm 1 mps 721 mmHg 76%
11:00 +1°C° 0 mm 1 mps 721 mmHg 74%
12:00 +2°C° 0 mm 1 mps 721 mmHg 72%
13:00 +3°C° 0 mm 1 mps 721 mmHg 70%
14:00 +3°C° 0.1 mm 1 mps 721 mmHg 75%
15:00 +2°C° 0.1 mm 1 mps 721 mmHg 79%
16:00 +2°C° 0.1 mm 1 mps 722 mmHg 83%
17:00 +1°C° 0.4 mm 1 mps 722 mmHg 87%
18:00 0°C° 0.4 mm 1 mps 722 mmHg 90%
19:00 -1°C° 0.4 mm 1 mps 723 mmHg 94%
20:00 -1°C° 0 mm 1 mps 723 mmHg 92%
21:00 -2°C° 0 mm 1 mps 724 mmHg 91%
22:00 -3°C° 0 mm 1 mps 724 mmHg 90%
23:00 -3°C° 0 mm 1 mps 724 mmHg 89%

Day after tomorrow, 27 January, Wednesday

Time Temperature Precipitation Wind Pressure Humidity
00:00 -3°C° 0 mm 1 mps 724 mmHg 89%
01:00 -3°C° 0 mm 1 mps 723 mmHg 88%
02:00 -3°C° 0 mm 1 mps 723 mmHg 88%
03:00 -3°C° 0 mm 1 mps 723 mmHg 87%
04:00 -2°C° 0 mm 1 mps 722 mmHg 87%
05:00 -2°C° 0 mm 1 mps 722 mmHg 87%
06:00 -2°C° 0 mm 1 mps 721 mmHg 87%
07:00 -2°C° 0 mm 1 mps 721 mmHg 87%
08:00 -1°C° 0 mm 1 mps 721 mmHg 85%
09:00 0°C° 0 mm 1 mps 721 mmHg 84%
10:00 0°C° 0 mm 1 mps 720 mmHg 82%
11:00 +1°C° 0 mm 1 mps 720 mmHg 80%
12:00 +2°C° 0 mm 1 mps 720 mmHg 79%
13:00 +3°C° 0 mm 1 mps 720 mmHg 77%
14:00 +3°C° 0 mm 1 mps 720 mmHg 80%
15:00 +3°C° 0 mm 1 mps 720 mmHg 83%
16:00 +2°C° 0 mm 1 mps 720 mmHg 86%
17:00 +2°C° 0 mm 1 mps 720 mmHg 87%
18:00 +1°C° 0 mm 1 mps 721 mmHg 87%
19:00 0°C° 0 mm 1 mps 721 mmHg 88%
20:00 0°C° 0 mm 1 mps 722 mmHg 88%
21:00 0°C° 0 mm 1 mps 722 mmHg 89%
22:00 0°C° 0 mm 1 mps 723 mmHg 89%
23:00 0°C° 0 mm 1 mps 723 mmHg 88%

28 January, Thursday

Time Temperature Precipitation Wind Pressure Humidity
00:00 -2°C° 0 mm 2 mps 723 mmHg 88%
01:00 -2°C° 0 mm 2 mps 723 mmHg 88%
02:00 -2°C° 0 mm 2 mps 723 mmHg 87%
03:00 0°C° 0 mm 1 mps 723 mmHg 87%
04:00 -1°C° 0 mm 1 mps 723 mmHg 86%
05:00 -1°C° 0 mm 1 mps 723 mmHg 86%
06:00 -1°C° 0 mm 1 mps 723 mmHg 86%
07:00 -1°C° 0 mm 1 mps 723 mmHg 85%
08:00 +1°C° 0 mm 1 mps 723 mmHg 84%
09:00 +2°C° 0 mm 1 mps 723 mmHg 83%
10:00 +3°C° 0 mm 1 mps 723 mmHg 82%
11:00 +3°C° 0 mm 1 mps 722 mmHg 84%
12:00 +4°C° 0 mm 1 mps 722 mmHg 86%
13:00 +4°C° 0 mm 1 mps 721 mmHg 88%
14:00 +4°C° 0 mm 1 mps 721 mmHg 89%
15:00 +4°C° 0 mm 1 mps 720 mmHg 90%
16:00 +4°C° 0 mm 1 mps 720 mmHg 91%
17:00 +3°C° 0 mm 1 mps 720 mmHg 90%
18:00 +2°C° 0 mm 1 mps 720 mmHg 89%
19:00 +2°C° 0 mm 1 mps 719 mmHg 88%

29 January, Friday

Time Temperature Precipitation Wind Pressure Humidity

30 January, Saturday

Time Temperature Precipitation Wind Pressure Humidity
Show more

We Need Your Consent

Meteoprog and our Service Providers may store and access personal data such as cookies, device identifiers or other similar technologies on your device and process such data to personalise content and ads, as well as provide social media features and to analyse the traffic.

  • Store and/or access information on your device

    Cookies, device identifiers or other information can be stored or accessed on your device for the purposes indicated above.

  • Personalised ads and content, ad and content measurement, audience insights, and products development

    Ads and content can be personalised based on a profile. More data can be added to better personalise ads and content. Ad and content performance can be measured. Insights about the audience who saw the ads and content can be derived. Such data can be used to develop or improve user’s experience, systems and software.

By clicking ‘I Agree’ you will allow the use of indicated cookies, device identifiers, web beacons or other similar technologies. Your settings can be changed in the browser on your device.

For certain purposes, legitimate interests may be relied on, rather than consent. You can read more about this in our Privacy and Cookie Policy.